Location: Nied?wied?
(53.3665°N, 14.8184°E)
Time: 01:29:54
(UTC+00:00)

SeaSat 1 - Pass Details

Date: 03 March 2021
Orbit: 744 x 748 km, 108.0° (Epoch: 11 April)

Event Time Altitude Azimuth Distance (km) Brightness Sun altitude
Rises 17:53:37 0° 35° (NE) 3,204 5.4 -11.4°
Reaches altitude 10° 17:56:01 10° 43° (NE) 2,276 4.6 -11.7°
Maximum altitude 18:00:43 42° 114° (ESE) 1,063 2.8 -12.4°
Drops below altitude 10° 18:05:23 10° 185° (S) 2,262 4.9 -13.1°
Sets 18:07:45 0° 192° (SSW) 3,182 5.8 -13.4°
